Torna al catalogo

STARLINK-2464

AttivoComunicazioniVLEO
NORAD 48123·PAYLOAD·🇺🇸 United States

Lanciato Apr 7, 2021 da Cape Canaveral Space Force Station

Loading…

Prossimi Passaggi (prossime 24 ore)

TLE

AggiornatoSource: CelesTrak SupGP

Epoca: Sep 15, 2026, 01:44 UTC

1 48123C 21027AH  26258.07270833  .00038534  00000+0  12389-2 0  2588
2 48123  53.1595 351.2716 0000902  96.8588 256.4531 15.31689132    14

Traccia STARLINK-2464 in tempo reale con AllMySat

Download on the App Store